This is the latest recevied weather packets stored in our database for station/object K4AVM-13. If no packets are shown the sender has not sent any weather packets the latest 10 day(s).
| Time | Temp. | Humidity | Pressure | Rain* | Wind** | Luminosity | Snow |
|---|---|---|---|---|---|---|---|
| 1778192731 | 11.11° C | 91% | 1012 hPa | 0 mm | - | 81 W/m² | - |
| 1778192427 | 11.11° C | 92% | 1012.1 hPa | 0 mm | - | 65 W/m² | - |
| 1778192124 | 11.11° C | 93% | 1011.7 hPa | 0 mm | - | 68 W/m² | - |
| 1778191821 | 11.11° C | 93% | 1011.7 hPa | 0 mm | - | 90 W/m² | - |
| 1778191518 | 11.11° C | 92% | 1011.7 hPa | 0 mm | - | 88 W/m² | - |
| 1778191216 | 11.11° C | 93% | 1012.1 hPa | 0 mm | - | 101 W/m² | - |
| 1778190911 | 11.11° C | 94% | 1011.6 hPa | 0 mm | - | 110 W/m² | - |
| 1778190610 | 11.11° C | 93% | 1012 hPa | 0 mm | - | 97 W/m² | - |
| 1778190306 | 11.11° C | 94% | 1011.8 hPa | 0 mm | - | 144 W/m² | - |
| 1778190002 | 11.11° C | 94% | 1011.7 hPa | 0 mm | - | 113 W/m² | - |
| 1778189699 | 11.11° C | 94% | 1011.6 hPa | 0 mm | - | 129 W/m² | - |
| 1778189395 | 11.11° C | 94% | 1012 hPa | 0 mm | - | 146 W/m² | - |
| 1778189091 | 11.11° C | 95% | 1011.5 hPa | 1.78 mm | - | 129 W/m² | - |
| 1778188788 | 10.56° C | 94% | 1011.6 hPa | 1.78 mm | - | 113 W/m² | - |
| 1778188485 | 11.11° C | 94% | 1011.7 hPa | 0 mm | - | 101 W/m² | - |
| 1778188182 | 10.56° C | 94% | 1011.6 hPa | 0 mm | - | 118 W/m² | - |
| 1778187878 | 10.56° C | 94% | 1011.7 hPa | 1.27 mm | - | 126 W/m² | - |
| 1778187575 | 10.56° C | 93% | 1011.7 hPa | 3.05 mm | - | 118 W/m² | - |
| 1778187272 | 10.56° C | 93% | 1012 hPa | 1.78 mm | - | 48 W/m² | - |
| 1778186968 | 10.56° C | 92% | 1012.6 hPa | 3.05 mm | - | 63 W/m² | - |
| 1778186659 | 11.11° C | 92% | 1012.3 hPa | 4.32 mm | - | 55 W/m² | - |
| 1778186357 | 11.11° C | 91% | 1011.9 hPa | 1.27 mm | - | 54 W/m² | - |
| 1778186055 | 11.11° C | 91% | 1012.2 hPa | 0 mm | - | 49 W/m² | - |
| 1778185750 | 11.11° C | 90% | 1012.1 hPa | 1.78 mm | - | 52 W/m² | - |
| 1778185442 | 11.11° C | 89% | 1011.9 hPa | 1.78 mm | - | 79 W/m² | - |
* Rain latest hour (hover to see other rain measurements)
** Current wind speed in m/s (hover to see current wind gust speed)